Time,TemperatureF,DewpointF,PressureIn,WindDirection,WindDirectionDegrees,WindSpeedMPH,WindSpeedGustMPH,Humidity,HourlyPrecipIn,Conditions,Clouds,dailyrainin,SoftwareType,DateUTC
2013-06-09 00:03:00,61.4,61.0,30.10,SSE,158,0.0,0.0,97,0.00,,,0.00,weatherlink.com 1.10,2013-06-09 04:03:00,
2013-06-09 00:48:00,60.4,60.0,30.10,SSE,158,0.0,1.0,98,0.00,,,0.00,weatherlink.com 1.10,2013-06-09 04:48:00,
2013-06-09 01:03:00,60.3,60.0,30.10,SSE,158,0.0,1.0,98,0.00,,,0.00,weatherlink.com 1.10,2013-06-09 05:03:00,
2013-06-09 01:18:00,60.3,60.0,30.09,SSE,158,0.0,1.0,98,0.00,,,0.00,weatherlink.com 1.10,2013-06-09 05:18:00,
2013-06-09 01:33:00,59.9,59.0,30.10,SSE,158,0.0,0.0,98,0.00,,,0.00,weatherlink.com 1.10,2013-06-09 05:33:00,
2013-06-09 01:48:00,59.4,59.0,30.10,SSE,158,0.0,1.0,98,0.00,,,0.00,weatherlink.com 1.10,2013-06-09 05:48:00,
2013-06-09 02:03:00,59.2,59.0,30.10,SSE,158,0.0,0.0,98,0.00,,,0.00,weatherlink.com 1.10,2013-06-09 06:03:00,
2013-06-09 02:18:00,59.1,59.0,30.10,SSE,158,0.0,0.0,98,0.00,,,0.00,weatherlink.com 1.10,2013-06-09 06:18:00,
2013-06-09 02:33:00,58.8,58.0,30.09,SSE,156,0.0,0.0,98,0.00,,,0.00,weatherlink.com 1.10,2013-06-09 06:33:00,
2013-06-09 02:48:00,58.4,58.0,30.10,SSE,156,0.0,0.0,98,0.00,,,0.00,weatherlink.com 1.10,2013-06-09 06:48:00,
2013-06-09 03:03:00,58.5,58.0,30.10,SSE,156,0.0,0.0,98,0.00,,,0.00,weatherlink.com 1.10,2013-06-09 07:03:00,
2013-06-09 03:18:00,58.6,58.0,30.11,SSE,156,0.0,1.0,98,0.00,,,0.00,weatherlink.com 1.10,2013-06-09 07:18:00,
2013-06-09 03:33:00,58.8,59.0,30.11,SSE,157,0.0,0.0,99,0.00,,,0.00,weatherlink.com 1.10,2013-06-09 07:33:00,
2013-06-09 03:48:00,58.6,58.0,30.11,SSE,156,0.0,0.0,98,0.00,,,0.00,weatherlink.com 1.10,2013-06-09 07:48:00,
2013-06-09 04:03:00,58.5,58.0,30.11,SSE,157,0.0,0.0,98,0.00,,,0.00,weatherlink.com 1.10,2013-06-09 08:03:00,
2013-06-09 04:18:00,58.3,58.0,30.12,SSE,157,0.0,1.0,98,0.00,,,0.00,weatherlink.com 1.10,2013-06-09 08:18:00,
2013-06-09 04:33:00,58.3,58.0,30.11,SSE,156,0.0,0.0,99,0.00,,,0.00,weatherlink.com 1.10,2013-06-09 08:33:00,
2013-06-09 04:48:00,58.1,58.0,30.12,SSE,156,0.0,1.0,98,0.00,,,0.00,weatherlink.com 1.10,2013-06-09 08:48:00,
2013-06-09 05:04:00,58.1,58.0,30.12,SSE,157,0.0,1.0,99,0.00,,,0.00,weatherlink.com 1.10,2013-06-09 09:04:00,
2013-06-09 05:18:00,58.1,58.0,30.12,SSE,157,0.0,1.0,99,0.00,,,0.00,weatherlink.com 1.10,2013-06-09 09:18:00,
2013-06-09 05:48:00,58.0,58.0,30.12,SSE,156,0.0,0.0,99,0.00,,,0.00,weatherlink.com 1.10,2013-06-09 09:48:00,
2013-06-09 06:03:00,57.8,58.0,30.13,SSE,156,0.0,0.0,99,0.00,,,0.00,weatherlink.com 1.10,2013-06-09 10:03:00,
2013-06-09 06:18:00,57.7,58.0,30.14,SSE,157,0.0,0.0,99,0.00,,,0.00,weatherlink.com 1.10,2013-06-09 10:18:00,
2013-06-09 06:33:00,57.9,58.0,30.14,SSE,156,0.0,1.0,99,0.00,,,0.00,weatherlink.com 1.10,2013-06-09 10:33:00,
2013-06-09 07:03:00,58.0,58.0,30.16,SSE,156,0.0,0.0,99,0.00,,,0.00,weatherlink.com 1.10,2013-06-09 11:03:00,
2013-06-09 07:18:00,58.3,58.0,30.16,SSE,156,0.0,0.0,99,0.00,,,0.00,weatherlink.com 1.10,2013-06-09 11:18:00,
2013-06-09 07:33:00,58.5,58.0,30.16,SSE,161,0.0,1.0,99,0.00,,,0.00,weatherlink.com 1.10,2013-06-09 11:33:00,
2013-06-09 07:48:00,58.8,59.0,30.16,West,260,0.0,1.0,99,0.00,,,0.00,weatherlink.com 1.10,2013-06-09 11:48:00,
2013-06-09 08:03:00,59.2,59.0,30.16,South,182,1.0,2.0,99,0.00,,,0.00,weatherlink.com 1.10,2013-06-09 12:03:00,
2013-06-09 08:18:00,59.9,60.0,30.16,SSE,164,0.0,1.0,99,0.00,,,0.00,weatherlink.com 1.10,2013-06-09 12:18:00,
2013-06-09 09:03:00,63.0,63.0,30.16,SE,141,0.0,1.0,99,0.00,,,0.00,weatherlink.com 1.10,2013-06-09 13:03:00,
2013-06-09 09:18:00,64.0,64.0,30.16,SE,141,0.0,1.0,99,0.00,,,0.00,weatherlink.com 1.10,2013-06-09 13:18:00,
2013-06-09 09:34:00,65.3,65.0,30.16,SE,138,0.0,3.0,99,0.00,,,0.00,weatherlink.com 1.10,2013-06-09 13:34:00,
2013-06-09 09:49:00,67.1,66.0,30.15,SE,136,0.0,1.0,96,0.00,,,0.00,weatherlink.com 1.10,2013-06-09 13:49:00,
2013-06-09 10:04:00,69.1,66.0,30.15,ENE,71,2.0,2.0,90,0.01,,,0.01,weatherlink.com 1.10,2013-06-09 14:04:00,
2013-06-09 10:19:00,70.9,66.0,30.14,North,350,0.0,4.0,85,0.01,,,0.01,weatherlink.com 1.10,2013-06-09 14:19:00,
2013-06-09 10:34:00,72.1,66.0,30.14,NNE,12,1.0,3.0,80,0.01,,,0.01,weatherlink.com 1.10,2013-06-09 14:34:00,
2013-06-09 10:49:00,73.6,67.0,30.13,WNW,293,0.0,3.0,79,0.00,,,0.01,weatherlink.com 1.10,2013-06-09 14:49:00,
2013-06-09 11:04:00,74.9,68.0,30.13,NW,312,1.0,5.0,78,0.00,,,0.01,weatherlink.com 1.10,2013-06-09 15:04:00,
2013-06-09 11:19:00,75.4,68.0,30.12,NNE,20,3.0,7.0,78,0.00,,,0.01,weatherlink.com 1.10,2013-06-09 15:19:00,
2013-06-09 11:49:00,77.6,68.0,30.12,SSW,195,3.0,6.0,71,0.00,,,0.01,weatherlink.com 1.10,2013-06-09 15:49:00,
2013-06-09 12:04:00,78.5,67.0,30.12,ESE,121,0.0,5.0,67,0.00,,,0.01,weatherlink.com 1.10,2013-06-09 16:04:00,
2013-06-09 12:19:00,78.5,66.0,30.11,ESE,115,0.0,3.0,65,0.00,,,0.01,weatherlink.com 1.10,2013-06-09 16:19:00,
2013-06-09 12:34:00,78.7,65.0,30.11,SSE,160,2.0,8.0,64,0.00,,,0.01,weatherlink.com 1.10,2013-06-09 16:34:00,
2013-06-09 12:49:00,78.8,66.0,30.11,SSE,158,1.0,4.0,66,0.00,,,0.01,weatherlink.com 1.10,2013-06-09 16:49:00,
2013-06-09 13:04:00,79.5,67.0,30.10,SSE,148,2.0,4.0,66,0.00,,,0.01,weatherlink.com 1.10,2013-06-09 17:04:00,
2013-06-09 13:19:00,79.6,66.0,30.09,SSW,208,3.0,6.0,64,0.00,,,0.01,weatherlink.com 1.10,2013-06-09 17:19:00,
2013-06-09 13:34:00,80.6,66.0,30.08,South,188,3.0,7.0,61,0.00,,,0.01,weatherlink.com 1.10,2013-06-09 17:34:00,
2013-06-09 13:49:00,80.8,66.0,30.07,South,172,2.0,7.0,62,0.00,,,0.01,weatherlink.com 1.10,2013-06-09 17:49:00,
2013-06-09 14:04:00,81.6,67.0,30.07,SW,226,5.0,8.0,61,0.00,,,0.01,weatherlink.com 1.10,2013-06-09 18:04:00,
2013-06-09 14:20:00,81.9,66.0,30.06,SSE,166,4.0,7.0,59,0.00,,,0.01,weatherlink.com 1.10,2013-06-09 18:20:00,
2013-06-09 14:35:00,81.6,65.0,30.05,SW,233,4.0,8.0,58,0.00,,,0.01,weatherlink.com 1.10,2013-06-09 18:35:00,
2013-06-09 14:49:00,82.2,65.0,30.04,ESE,115,3.0,6.0,56,0.00,,,0.01,weatherlink.com 1.10,2013-06-09 18:49:00,
2013-06-09 15:20:00,81.9,66.0,30.03,South,174,6.0,8.0,58,0.00,,,0.01,weatherlink.com 1.10,2013-06-09 19:20:00,
2013-06-09 15:35:00,82.2,65.0,30.02,SW,218,1.0,8.0,56,0.00,,,0.01,weatherlink.com 1.10,2013-06-09 19:35:00,
2013-06-09 15:50:00,82.7,66.0,30.02,South,170,2.0,7.0,58,0.00,,,0.01,weatherlink.com 1.10,2013-06-09 19:50:00,
2013-06-09 16:04:00,83.8,65.0,30.00,ESE,118,1.0,4.0,54,0.00,,,0.01,weatherlink.com 1.10,2013-06-09 20:04:00,
2013-06-09 16:20:00,82.7,65.0,30.00,SE,139,4.0,8.0,56,0.00,,,0.01,weatherlink.com 1.10,2013-06-09 20:20:00,
2013-06-09 16:35:00,82.6,67.0,30.00,SE,132,4.0,6.0,60,0.00,,,0.01,weatherlink.com 1.10,2013-06-09 20:35:00,
2013-06-09 16:49:00,82.0,66.0,30.00,SE,135,1.0,8.0,59,0.00,,,0.01,weatherlink.com 1.10,2013-06-09 20:49:00,
2013-06-09 17:05:00,80.8,65.0,30.00,SW,232,0.0,6.0,59,0.00,,,0.01,weatherlink.com 1.10,2013-06-09 21:05:00,
2013-06-09 17:20:00,79.0,65.0,30.00,SSE,165,2.0,6.0,63,0.00,,,0.01,weatherlink.com 1.10,2013-06-09 21:20:00,
2013-06-09 17:35:00,78.4,69.0,30.00,SSE,163,1.0,1.0,72,0.00,,,0.01,weatherlink.com 1.10,2013-06-09 21:35:00,
2013-06-09 17:50:00,77.5,70.0,29.99,SSE,160,0.0,1.0,77,0.00,,,0.01,weatherlink.com 1.10,2013-06-09 21:50:00,
2013-06-09 18:05:00,76.2,67.0,30.00,ESE,115,1.0,3.0,72,0.00,,,0.01,weatherlink.com 1.10,2013-06-09 22:05:00,
2013-06-09 18:20:00,75.8,66.0,30.01,ESE,110,7.0,7.0,71,0.00,,,0.01,weatherlink.com 1.10,2013-06-09 22:20:00,
2013-06-09 18:35:00,75.3,65.0,30.01,WSW,243,0.0,7.0,70,0.00,,,0.01,weatherlink.com 1.10,2013-06-09 22:35:00,
2013-06-09 18:50:00,74.4,65.0,30.02,SW,217,0.0,7.0,72,0.00,,,0.01,weatherlink.com 1.10,2013-06-09 22:50:00,
2013-06-09 19:35:00,68.4,66.0,30.04,ESE,103,0.0,2.0,93,0.09,,,0.10,weatherlink.com 1.10,2013-06-09 23:35:00,
2013-06-09 19:50:00,68.0,67.0,30.05,South,170,0.0,4.0,95,0.15,,,0.16,weatherlink.com 1.10,2013-06-09 23:50:00,
2013-06-09 20:04:00,67.6,66.0,30.06,SSW,205,2.0,4.0,95,0.21,,,0.23,weatherlink.com 1.10,2013-06-10 00:04:00,
2013-06-09 20:20:00,67.1,66.0,30.06,ESE,105,0.0,3.0,96,0.29,,,0.34,weatherlink.com 1.10,2013-06-10 00:20:00,
2013-06-09 20:35:00,66.9,66.0,30.05,NE,45,0.0,2.0,96,0.28,,,0.38,weatherlink.com 1.10,2013-06-10 00:35:00,
2013-06-09 21:05:00,66.3,65.0,30.05,NE,49,0.0,1.0,96,0.18,,,0.42,weatherlink.com 1.10,2013-06-10 01:05:00,
2013-06-09 21:20:00,66.2,65.0,30.05,NE,48,0.0,1.0,97,0.08,,,0.42,weatherlink.com 1.10,2013-06-10 01:20:00,
2013-06-09 21:50:00,66.2,65.0,30.04,NNE,30,0.0,1.0,97,0.03,,,0.44,weatherlink.com 1.10,2013-06-10 01:50:00,
2013-06-09 22:05:00,66.1,65.0,30.04,NE,41,0.0,2.0,97,0.03,,,0.45,weatherlink.com 1.10,2013-06-10 02:05:00,
2013-06-09 22:20:00,66.1,66.0,30.04,NE,41,0.0,1.0,98,0.05,,,0.47,weatherlink.com 1.10,2013-06-10 02:20:00,
2013-06-09 22:49:00,65.9,65.0,30.03,NE,37,0.0,1.0,98,0.04,,,0.48,weatherlink.com 1.10,2013-06-10 02:49:00,
2013-06-09 23:05:00,65.9,65.0,30.03,NE,37,1.0,1.0,98,0.03,,,0.48,weatherlink.com 1.10,2013-06-10 03:05:00,
2013-06-09 23:20:00,66.0,66.0,30.03,NE,37,0.0,1.0,98,0.01,,,0.48,weatherlink.com 1.10,2013-06-10 03:20:00,
2013-06-09 23:35:00,66.1,66.0,30.02,NNE,18,0.0,2.0,98,0.00,,,0.48,weatherlink.com 1.10,2013-06-10 03:35:00,
2013-06-09 23:50:00,66.0,66.0,30.02,NNE,30,0.0,1.0,98,0.00,,,0.48,weatherlink.com 1.10,2013-06-10 03:50:00,